User: anonymous   Login
Location: Unspecified
(0.0000°N, 0.0000°E)
Time: 23:25:28
(UTC+00:00)
Language:

FENGYUN 1C DEB - Orbit

View from above orbital plane
View from above orbital plane
View from above satellite
View from above satellite

Ground track
Ground track

The orbit is defined by the following mean orbital elements,

1 32164U 99025CTJ 15072.08990585  .00002255  00000-0  55693-3 0  9995
2 32164  99.3273  29.7416 0124038 216.0851 143.1921 14.48733747405009
Epoch (UTC): 13 March 2015 02:09:27
Eccentricity: 0.0124038
inclination: 99.3273°
perigee height: 641 km
apogee height: 818 km
right ascension of ascending node: 29.7416°
argument of perigee: 216.0851°
revolutions per day: 14.48733747
mean anomaly at epoch: 143.1921°

The dashed part of the orbit path shows where the satellite is in the earth's shadow,  

DLR